TimeEST,TemperatureF,Dew PointF,Humidity,Sea Level PressureIn,VisibilityMPH,Wind Direction,Wind SpeedMPH,Gust SpeedMPH,PrecipitationIn,Events,Conditions,WindDirDegrees,DateUTC
12:15 AM,69.8,68.0,94,30.27,10.0,East,6.9,-,N/A,,Scattered Clouds,100,2012-11-12 05:15:00
12:35 AM,69.8,69.8,100,30.27,10.0,ESE,4.6,-,N/A,,Clear,120,2012-11-12 05:35:00
12:55 AM,68.0,68.0,100,30.27,10.0,Calm,Calm,-,N/A,,Clear,0,2012-11-12 05:55:00
1:15 AM,68.0,68.0,100,30.27,7.0,Calm,Calm,-,N/A,,Scattered Clouds,0,2012-11-12 06:15:00
1:35 AM,66.2,66.2,100,30.27,7.0,Calm,Calm,-,N/A,,Mostly Cloudy,0,2012-11-12 06:35:00
1:55 AM,66.2,66.2,100,30.26,7.0,Calm,Calm,-,N/A,,Mostly Cloudy,0,2012-11-12 06:55:00
2:15 AM,64.4,64.4,100,30.26,7.0,Calm,Calm,-,N/A,,Mostly Cloudy,0,2012-11-12 07:15:00
2:35 AM,66.2,66.2,100,30.26,7.0,Calm,Calm,-,N/A,,Overcast,0,2012-11-12 07:35:00
2:55 AM,68.0,68.0,100,30.26,7.0,Calm,Calm,-,N/A,,Overcast,0,2012-11-12 07:55:00
3:15 AM,68.0,68.0,100,-9999,7.0,Calm,Calm,-,N/A,,Overcast,0,2012-11-12 08:15:00
3:35 AM,69.8,69.8,100,30.25,7.0,East,4.6,-,N/A,,Overcast,90,2012-11-12 08:35:00
3:55 AM,68.0,68.0,100,30.24,7.0,East,3.5,-,N/A,,Overcast,100,2012-11-12 08:55:00
4:15 AM,69.8,69.8,100,30.24,7.0,ENE,3.5,-,N/A,,Overcast,70,2012-11-12 09:15:00
4:35 AM,69.8,69.8,100,30.24,7.0,East,3.5,-,N/A,,Overcast,80,2012-11-12 09:35:00
4:55 AM,69.8,69.8,100,30.24,7.0,SSE,3.5,-,N/A,,Overcast,150,2012-11-12 09:55:00
5:15 AM,68.0,68.0,100,30.24,7.0,Calm,Calm,-,N/A,,Overcast,0,2012-11-12 10:15:00
5:35 AM,68.0,68.0,100,30.24,7.0,Calm,Calm,-,N/A,,Overcast,0,2012-11-12 10:35:00
5:55 AM,69.8,69.8,100,30.24,7.0,East,3.5,-,N/A,,Overcast,100,2012-11-12 10:55:00
6:15 AM,68.0,68.0,100,30.24,7.0,SW,3.5,-,N/A,,Overcast,220,2012-11-12 11:15:00
6:35 AM,68.0,68.0,100,30.24,7.0,Calm,Calm,-,N/A,,Overcast,0,2012-11-12 11:35:00
6:55 AM,68.0,68.0,100,30.24,7.0,Calm,Calm,-,N/A,,Mostly Cloudy,0,2012-11-12 11:55:00
7:15 AM,66.2,66.2,100,30.25,7.0,Calm,Calm,-,N/A,,Mostly Cloudy,0,2012-11-12 12:15:00
7:55 AM,68.0,68.0,100,30.26,5.0,SSE,4.6,-,N/A,,Overcast,160,2012-11-12 12:55:00
8:15 AM,69.8,69.8,100,30.27,5.0,SE,8.1,-,N/A,,Overcast,130,2012-11-12 13:15:00
8:35 AM,69.8,68.0,94,30.27,7.0,ESE,8.1,-,N/A,,Overcast,120,2012-11-12 13:35:00
8:55 AM,69.8,69.8,100,30.28,10.0,ESE,6.9,-,N/A,,Overcast,110,2012-11-12 13:55:00
9:15 AM,69.8,69.8,100,30.28,10.0,East,4.6,-,N/A,,Overcast,100,2012-11-12 14:15:00
9:35 AM,71.6,69.8,94,30.28,10.0,ESE,5.8,-,N/A,,Overcast,120,2012-11-12 14:35:00
9:55 AM,71.6,69.8,94,30.29,10.0,ESE,8.1,-,N/A,,Overcast,120,2012-11-12 14:55:00
10:15 AM,69.8,69.8,100,30.29,7.0,SE,5.8,-,N/A,,Overcast,130,2012-11-12 15:15:00
10:35 AM,69.8,69.8,100,30.28,7.0,ESE,5.8,-,N/A,,Overcast,110,2012-11-12 15:35:00
10:55 AM,71.6,69.8,94,30.28,7.0,SE,3.5,-,N/A,,Overcast,130,2012-11-12 15:55:00
11:15 AM,73.4,69.8,88,30.28,10.0,ESE,8.1,-,N/A,,Mostly Cloudy,110,2012-11-12 16:15:00
11:35 AM,71.6,69.8,94,30.27,10.0,SE,9.2,-,N/A,,Mostly Cloudy,140,2012-11-12 16:35:00
11:55 AM,75.2,69.8,83,30.26,10.0,SE,10.4,17.3,N/A,,Overcast,140,2012-11-12 16:55:00
12:15 PM,77.0,69.8,78,30.25,10.0,SE,9.2,-,N/A,,Overcast,140,2012-11-12 17:15:00
12:35 PM,77.0,69.8,78,30.25,10.0,SE,12.7,-,N/A,,Mostly Cloudy,130,2012-11-12 17:35:00
12:55 PM,71.6,69.8,94,30.24,10.0,ESE,8.1,-,N/A,,Mostly Cloudy,120,2012-11-12 17:55:00
1:15 PM,73.4,69.8,88,30.24,10.0,ESE,10.4,-,N/A,,Mostly Cloudy,110,2012-11-12 18:15:00
1:35 PM,71.6,69.8,94,30.23,10.0,ESE,11.5,-,N/A,,Overcast,120,2012-11-12 18:35:00
1:55 PM,73.4,69.8,88,30.23,10.0,East,9.2,-,N/A,,Mostly Cloudy,100,2012-11-12 18:55:00
2:15 PM,71.6,68.0,88,30.23,10.0,East,8.1,-,N/A,,Mostly Cloudy,100,2012-11-12 19:15:00
2:35 PM,71.6,69.8,94,30.22,10.0,East,6.9,-,N/A,,Overcast,90,2012-11-12 19:35:00
2:55 PM,71.6,69.8,94,30.21,10.0,East,9.2,-,N/A,,Overcast,90,2012-11-12 19:55:00
3:15 PM,71.6,68.0,88,30.21,10.0,East,9.2,-,N/A,,Mostly Cloudy,100,2012-11-12 20:15:00
3:35 PM,71.6,68.0,88,30.21,10.0,East,6.9,-,N/A,,Scattered Clouds,100,2012-11-12 20:35:00
3:55 PM,69.8,68.0,94,30.21,10.0,East,4.6,-,N/A,,Mostly Cloudy,90,2012-11-12 20:55:00
4:15 PM,69.8,68.0,94,30.21,10.0,SE,3.5,-,N/A,,Overcast,140,2012-11-12 21:15:00
4:35 PM,71.6,68.0,88,30.21,10.0,SE,8.1,-,N/A,,Overcast,140,2012-11-12 21:35:00
4:55 PM,69.8,69.8,100,30.20,7.0,ESE,4.6,-,N/A,,Overcast,110,2012-11-12 21:55:00
5:15 PM,69.8,69.8,100,30.20,10.0,East,5.8,-,N/A,,Overcast,100,2012-11-12 22:15:00
5:35 PM,69.8,69.8,100,30.20,7.0,East,4.6,-,N/A,,Overcast,90,2012-11-12 22:35:00
5:55 PM,69.8,69.8,100,30.20,10.0,East,4.6,-,N/A,,Overcast,80,2012-11-12 22:55:00
6:15 PM,69.8,69.8,100,30.20,10.0,East,5.8,-,N/A,,Overcast,80,2012-11-12 23:15:00
6:35 PM,69.8,69.8,100,30.20,10.0,East,3.5,-,N/A,,Overcast,100,2012-11-12 23:35:00
6:55 PM,69.8,69.8,100,30.20,10.0,East,4.6,-,N/A,,Overcast,100,2012-11-12 23:55:00
7:15 PM,69.8,69.8,100,30.21,10.0,East,3.5,-,N/A,,Overcast,100,2012-11-13 00:15:00
7:35 PM,69.8,69.8,100,30.21,10.0,East,3.5,-,N/A,,Overcast,100,2012-11-13 00:35:00
7:55 PM,69.8,69.8,100,30.21,10.0,East,4.6,-,N/A,,Overcast,100,2012-11-13 00:55:00
8:15 PM,69.8,69.8,100,30.21,10.0,ESE,4.6,-,N/A,,Overcast,110,2012-11-13 01:15:00
8:35 PM,69.8,69.8,100,30.21,10.0,ESE,4.6,-,N/A,,Overcast,110,2012-11-13 01:35:00
8:55 PM,69.8,69.8,100,30.21,10.0,Calm,Calm,-,N/A,,Scattered Clouds,0,2012-11-13 01:55:00
9:15 PM,68.0,68.0,100,30.21,10.0,ESE,3.5,-,N/A,,Clear,120,2012-11-13 02:15:00
9:35 PM,68.0,68.0,100,30.21,7.0,ESE,3.5,-,N/A,,Clear,120,2012-11-13 02:35:00
9:55 PM,68.0,68.0,100,30.21,7.0,Calm,Calm,-,N/A,,Clear,0,2012-11-13 02:55:00
10:15 PM,68.0,68.0,100,30.20,10.0,ESE,3.5,-,N/A,,Clear,120,2012-11-13 03:15:00
10:35 PM,68.0,68.0,100,30.20,10.0,East,3.5,-,N/A,,Clear,100,2012-11-13 03:35:00
10:55 PM,68.0,68.0,100,30.20,7.0,Calm,Calm,-,N/A,,Clear,0,2012-11-13 03:55:00
11:15 PM,66.2,66.2,100,30.20,5.0,Calm,Calm,-,N/A,,Clear,0,2012-11-13 04:15:00
11:35 PM,64.4,64.4,100,30.19,5.0,Calm,Calm,-,N/A,,Clear,0,2012-11-13 04:35:00
11:55 PM,64.4,64.4,100,30.18,1.2,East,3.5,-,N/A,,Unknown,90,2012-11-13 04:55:00